Temporada 2026 · Ronda 8

Austrian Grand Prix

2026-06-28 · Red Bull Ring · Austria · Austrian Grand Prix · 71Lap · 307.026km
Mercedes 1:26:37.979
Victoria de equipo 40pt P1 · P3 1-3
Red Bull +1.611
Vuelta rápida
1:10.374 · L59
Abandono
4
Lance Stroll L45 Carlos Sainz L23 Sergio Pérez L4 Valtteri Bottas L2
Clima
34°/50°
media aire/pista · seco · humedad 30%
Coche de seguridad
2
desplegado en la vuelta L25, L52
Uso de neumáticos Dirección de carrera
Storylines · This Grand Prix & circuit
Más victorias en este GP
Max Verstappen activo 4 victorias
Conversión pole-victoria 16/40 40%
Most DNFs · all-time P13
Most SC/VSC · all-time P14
Final más ajustado · all-time P4
Most lead changes · all-time P25
Circuito Info
Red Bull Ring Spielberg, Austria
71Lap 307.026km 40 carreras held (1970–) Récord de vuelta 1:05.619 · Carlos Sainz (2020)
Récords Watch · Active drivers ranked at this Grand Prix
P1 Max Verstappen 4 victorias · GP #1
P3 Valtteri Bottas 2 victorias · → Alain Prost -1
P3 George Russell 2 victorias · → Alain Prost -1
P1 Fernando Alonso 13 salidas · GP #1
P1 Lewis Hamilton 13 salidas · GP #1
P3 Valtteri Bottas 12 salidas · → Lewis Hamilton -1
Carrera Trace · position by lap
VSC · vueltas 25–26 VSC · vueltas 52–53 salida parada SG 1 7 13 19 25 31 37 43 49 55 61 67 Russell · parada en boxes L19 Russell · parada en boxes L43 Russell RUS Russell RUS Verstappen · parada en boxes L18 Verstappen · parada en boxes L49 Verstappen VER Verstappen VER Antonelli · parada en boxes L24 Antonelli · parada en boxes L51 Antonelli ANT Antonelli ANT Piastri · parada en boxes L19 Piastri · parada en boxes L42 Piastri PIA Piastri PIA Hamilton · parada en boxes L12 Hamilton · parada en boxes L25 Hamilton · parada en boxes L42 Hamilton HAM Hamilton HAM Hadjar · parada en boxes L18 Hadjar · parada en boxes L40 Hadjar HAD Hadjar HAD Norris · parada en boxes L21 Norris · parada en boxes L47 Norris NOR Norris NOR Leclerc · parada en boxes L13 Leclerc · parada en boxes L37 Leclerc · parada en boxes L59 Leclerc LEC Leclerc LEC Lawson · parada en boxes L19 Lawson · parada en boxes L45 Lawson LAW Lawson LAW Lindblad · parada en boxes L18 Lindblad · parada en boxes L46 Lindblad LIN Lindblad LIN Bortoleto · parada en boxes L17 Bortoleto · parada en boxes L44 Bortoleto BOR Bortoleto BOR Hülkenberg · parada en boxes L21 Hülkenberg · parada en boxes L45 Hülkenberg HUL Hülkenberg HUL Gasly · parada en boxes L13 Gasly · parada en boxes L38 Gasly · parada en boxes L51 Gasly GAS Gasly GAS Bearman · parada en boxes L24 Bearman · parada en boxes L45 Bearman BEA Bearman BEA Colapinto · parada en boxes L20 Colapinto · parada en boxes L46 Colapinto COL Colapinto COL Ocon · parada en boxes L18 Ocon · parada en boxes L33 Ocon OCO Ocon OCO Albon · parada en boxes L18 Albon · parada en boxes L37 Albon ALB Albon ALB Alonso · parada en boxes L24 Alonso · parada en boxes L49 · sanción cumplida Alonso ALO Alonso ALO Stroll · parada en boxes L24 Stroll · abandono L45 Stroll STR Stroll STR Sainz · parada en boxes L14 Sainz · abandono L23 Sainz SAI Sainz SAI Pérez · abandono L4 Pérez PER Pérez PER Bottas · abandono L2 Bottas BOT Bottas BOT
SC·VSC parada en boxes sanción cumplida en boxes SG Parrilla de salida coche detenido posición en cada vuelta (desde 1996)
PosPilotoTeamParrillaVueltaTiempo / EstadoPuntos
1 63 George Russell Mercedes 1 71 1:26:37.979 25
2 3 Max Verstappen Red Bull 5 71 +1.611 18
3 12 Andrea Kimi Antonelli FL Mercedes 4 71 +1.986 15
4 81 Oscar Piastri McLaren 7 71 +21.809 12
5 44 Lewis Hamilton Ferrari 3 71 +26.393 10
6 6 Isack Hadjar Red Bull 8 71 +29.399 8
7 1 Lando Norris McLaren 6 71 +31.505 6
8 16 Charles Leclerc Ferrari 2 71 +45.659 4
9 30 Liam Lawson RB F1 Team 9 70 +15.334 2
10 41 Arvid Lindblad RB F1 Team 10 70 +19.030 1
11 5 Gabriel Bortoleto Audi 12 70 +30.315
12 27 Nico Hülkenberg Audi 14 70 +38.484
13 10 Pierre Gasly Alpine F1 Team 11 70 +39.251
14 87 Oliver Bearman Haas F1 Team 13 70 +1:02.677
15 43 Franco Colapinto Alpine F1 Team 16 70 +1:05.647
16 31 Esteban Ocon Haas F1 Team 15 69 +25.932
17 23 Alexander Albon Williams 18 69 +28.082
18 14 Fernando Alonso Aston Martin 21 68 +4.833
R 18 Lance Stroll Aston Martin 22 45 Retired
R 55 Carlos Sainz Williams 17 23 Retired
R 11 Sergio Pérez Cadillac F1 Team 19 4 Retired
R 77 Valtteri Bottas Cadillac F1 Team 20 2 Retired
PosPilotoTeamQ1Q2Q3Diferencia con la pole
1 63 George Russell Mercedes 1:07.398 1:06.979 1:06.113 POLE Q3
2 16 Charles Leclerc Ferrari 1:07.543 1:07.030 1:06.349 +0.236 Q3
3 44 Lewis Hamilton Ferrari 1:07.290 1:06.994 1:06.408 +0.295 Q3
4 12 Andrea Kimi Antonelli Mercedes 1:07.083 1:06.763 1:06.414 +0.301 Q3
5 3 Max Verstappen Red Bull 1:07.407 1:07.183 1:06.475 +0.362 Q3
6 1 Lando Norris McLaren 1:07.259 1:06.897 1:06.502 +0.389 Q3
7 81 Oscar Piastri McLaren 1:07.487 1:06.890 1:06.511 +0.398 Q3
8 6 Isack Hadjar Red Bull 1:07.408 1:07.086 1:06.632 +0.519 Q3
9 30 Liam Lawson RB F1 Team 1:07.385 1:07.136 1:06.955 +0.842 Q3
10 41 Arvid Lindblad RB F1 Team 1:07.549 1:07.155 1:07.007 +0.894 Q3
11 10 Pierre Gasly Alpine F1 Team 1:08.038 1:07.223 +1.110 Q2
12 5 Gabriel Bortoleto Audi 1:08.035 1:07.293 +1.180 Q2
13 87 Oliver Bearman Haas F1 Team 1:08.061 1:07.523 +1.410 Q2
14 27 Nico Hülkenberg Audi 1:08.066 1:07.611 +1.498 Q2
15 31 Esteban Ocon Haas F1 Team 1:08.231 1:07.817 +1.704 Q2
16 43 Franco Colapinto Alpine F1 Team 1:07.894 1:08.171 +1.781 Q1
17 55 Carlos Sainz Williams 1:08.252 +2.139 Q1
18 23 Alexander Albon Williams 1:08.509 +2.396 Q1
19 11 Sergio Pérez Cadillac F1 Team 1:08.945 +2.832 Q1
20 77 Valtteri Bottas Cadillac F1 Team 1:09.030 +2.917 Q1
21 14 Fernando Alonso Aston Martin 1:09.942 +3.829 Q1
22 18 Lance Stroll Aston Martin 1:10.363 +4.250 Q1
Parrilla de salida
Oficial
Final grid as clasificado, including any desde el pit lane salidas. Source: Jolpica-F1. The arrow compares the grid slot with the clasificación classification; hover a drop to see the stewards document behind it.
Programado: aparecerá cuando termine clasificación al sprint.
PosPilotoMejor vueltaDiferenciaVueltas
1 12 Andrea Kimi Antonelli 1:07.796 29
2 63 George Russell 1:07.836 +0.040 30
3 81 Oscar Piastri 1:07.913 +0.117 26
4 3 Max Verstappen 1:08.077 +0.281 17
5 44 Lewis Hamilton 1:08.461 +0.665 25
6 41 Arvid Lindblad 1:08.726 +0.930 18
7 1 Lando Norris 1:08.873 +1.077 9
8 43 Franco Colapinto 1:08.962 +1.166 27
9 87 Oliver Bearman 1:09.071 +1.275 26
10 27 Nico Hülkenberg 1:09.165 +1.369 30
11 6 Isack Hadjar 1:09.481 +1.685 11
12 77 Valtteri Bottas 1:09.521 +1.725 21
13 10 Pierre Gasly 1:09.546 +1.750 28
14 23 Alexander Albon 1:09.644 +1.848 31
15 11 Sergio Pérez 1:11.283 +3.487 14
16 14 Fernando Alonso 1:11.333 +3.537 21
Classified by best lap · source OpenF1 (2023+)
PosPilotoMejor vueltaDiferenciaVueltas
1 12 Andrea Kimi Antonelli 1:07.014 32
2 81 Oscar Piastri 1:07.251 +0.237 32
3 1 Lando Norris 1:07.339 +0.325 32
4 3 Max Verstappen 1:07.564 +0.550 29
5 44 Lewis Hamilton 1:07.611 +0.597 33
6 63 George Russell 1:07.637 +0.623 25
7 6 Isack Hadjar 1:07.758 +0.744 28
8 16 Charles Leclerc 1:07.855 +0.841 35
9 30 Liam Lawson 1:08.235 +1.221 34
10 5 Gabriel Bortoleto 1:08.300 +1.286 30
11 10 Pierre Gasly 1:08.376 +1.362 33
12 41 Arvid Lindblad 1:08.378 +1.364 29
13 87 Oliver Bearman 1:08.532 +1.518 33
14 27 Nico Hülkenberg 1:08.559 +1.545 32
15 31 Esteban Ocon 1:08.830 +1.816 33
16 43 Franco Colapinto 1:08.831 +1.817 30
17 23 Alexander Albon 1:08.838 +1.824 34
18 55 Carlos Sainz 1:09.131 +2.117 30
19 14 Fernando Alonso 1:10.544 +3.530 27
20 18 Lance Stroll 1:10.698 +3.684 32
21 77 Valtteri Bottas 1:11.307 +4.293 6
22 11 Sergio Pérez 2
Classified by best lap · source OpenF1 (2023+)
PosPilotoMejor vueltaDiferenciaVueltas
1 63 George Russell 1:07.096 19
2 12 Andrea Kimi Antonelli 1:07.134 +0.038 17
3 44 Lewis Hamilton 1:07.211 +0.115 22
4 81 Oscar Piastri 1:07.344 +0.248 16
5 1 Lando Norris 1:07.360 +0.264 20
6 3 Max Verstappen 1:07.369 +0.273 16
7 16 Charles Leclerc 1:07.452 +0.356 24
8 6 Isack Hadjar 1:07.912 +0.816 27
9 30 Liam Lawson 1:08.031 +0.935 21
10 41 Arvid Lindblad 1:08.109 +1.013 24
11 10 Pierre Gasly 1:08.193 +1.097 16
12 27 Nico Hülkenberg 1:08.303 +1.207 22
13 5 Gabriel Bortoleto 1:08.311 +1.215 22
14 43 Franco Colapinto 1:08.394 +1.298 18
15 87 Oliver Bearman 1:08.529 +1.433 18
16 31 Esteban Ocon 1:08.707 +1.611 15
17 55 Carlos Sainz 1:08.843 +1.747 27
18 23 Alexander Albon 1:08.992 +1.896 25
19 11 Sergio Pérez 1:09.532 +2.436 29
20 77 Valtteri Bottas 1:09.740 +2.644 24
21 14 Fernando Alonso 1:10.421 +3.325 21
22 18 Lance Stroll 1:10.567 +3.471 19
Classified by best lap · source OpenF1 (2023+)
#PilotoTiempo de vueltaVuelta
1 12 Andrea Kimi Antonelli 1:10.374 L59
2 12 Andrea Kimi Antonelli 1:10.391 L60
3 12 Andrea Kimi Antonelli 1:10.407 L69
4 12 Andrea Kimi Antonelli 1:10.424 L54
5 12 Andrea Kimi Antonelli 1:10.430 L56
6 12 Andrea Kimi Antonelli 1:10.442 L61
7 12 Andrea Kimi Antonelli 1:10.444 L55
8 12 Andrea Kimi Antonelli 1:10.470 L57
9 3 Max Verstappen 1:10.483 L57
10 3 Max Verstappen 1:10.508 L59
Top 10 más rápida race vueltas — #1 is the más rápida lap of la carrera(FL).
Paradas · cómo se comparan
22s 24s 26s 28s mediana 21.6s Charles Leclerc · L37 · 21.020s George Russell · L19 · 21.204s Oscar Piastri · L42 · 21.209s Pierre Gasly · L38 · 21.212s George Russell · L43 · 21.221s Alexander Albon · L18 · 21.249s Lewis Hamilton · L25 · 21.250s Max Verstappen · L49 · 21.252s Lewis Hamilton · L42 · 21.267s Isack Hadjar · L40 · 21.268s Alexander Albon · L37 · 21.270s Max Verstappen · L18 · 21.317s Lewis Hamilton · L12 · 21.369s Carlos Sainz · L14 · 21.371s Arvid Lindblad · L18 · 21.408s Andrea Kimi Antonelli · L24 · 21.413s Franco Colapinto · L46 · 21.446s Andrea Kimi Antonelli · L51 · 21.502s Liam Lawson · L45 · 21.545s Arvid Lindblad · L46 · 21.551s Franco Colapinto · L20 · 21.561s Lando Norris · L21 · 21.578s Pierre Gasly · L51 · 21.580s Nico Hülkenberg · L21 · 21.585s Oliver Bearman · L24 · 21.593s Pierre Gasly · L13 · 21.600s Charles Leclerc · L13 · 21.731s Isack Hadjar · L18 · 21.770s Lando Norris · L47 · 21.816s Gabriel Bortoleto · L44 · 21.877s Esteban Ocon · L18 · 21.878s Liam Lawson · L19 · 22.022s Oliver Bearman · L45 · 22.044s Oscar Piastri · L19 · 22.077s Fernando Alonso · L24 · 22.358s Nico Hülkenberg · L45 · 22.591s Gabriel Bortoleto · L17 · 22.605s Charles Leclerc · L59 · 22.738s Lance Stroll · L24 · 23.522s Esteban Ocon · L33 · 25.455s Fernando Alonso · L49 · 28.713s · sanción cumplida
más rápida 21.020s Charles Leclerc más lenta 28.713s Fernando Alonso sanción cumplida tiempo de paso por el desde el pit lane — un punto por parada
PilotoParadaVueltaTiempoPaso por el desde el pit lane
44 Lewis Hamilton 1 12 15:17:52 21.369s
10 Pierre Gasly 1 13 15:19:33 21.600s
16 Charles Leclerc 1 13 15:19:10 21.731s
55 Carlos Sainz 1 14 15:20:51 21.371s
5 Gabriel Bortoleto 1 17 15:24:22 22.605s
41 Arvid Lindblad 1 18 15:25:32 21.408s
23 Alexander Albon 1 18 15:25:53 21.249s
31 Esteban Ocon 1 18 15:25:50 21.878s
3 Max Verstappen 1 18 15:25:08 21.317s
6 Isack Hadjar 1 18 15:25:21 21.770s
63 George Russell 1 19 15:26:16 21.204s
30 Liam Lawson 1 19 15:26:44 22.022s
81 Oscar Piastri 1 19 15:26:31 22.077s
43 Franco Colapinto 1 20 15:28:24 21.561s
1 Lando Norris 1 21 15:29:01 21.578s
27 Nico Hülkenberg 1 21 15:29:31 21.585s
14 Fernando Alonso 1 24 15:33:56 22.358s
12 Andrea Kimi Antonelli 1 24 15:32:30 21.413s
87 Oliver Bearman 1 24 15:33:29 21.593s
18 Lance Stroll 1 24 15:34:04 23.522s
44 Lewis Hamilton 2 25 15:34:17 21.250s
31 Esteban Ocon 2 33 15:45:18 25.455s
23 Alexander Albon 2 37 15:50:22 21.270s
16 Charles Leclerc 2 37 15:49:12 21.020s
10 Pierre Gasly 2 38 15:51:10 21.212s
6 Isack Hadjar 2 40 15:52:52 21.268s
81 Oscar Piastri 2 42 15:55:11 21.209s
44 Lewis Hamilton 3 42 15:55:13 21.267s
63 George Russell 2 43 15:56:07 21.221s
5 Gabriel Bortoleto 2 44 15:58:22 21.877s
87 Oliver Bearman 2 45 16:00:03 22.044s
30 Liam Lawson 2 45 15:59:29 21.545s
27 Nico Hülkenberg 2 45 15:59:44 22.591s
41 Arvid Lindblad 2 46 16:00:41 21.551s
43 Franco Colapinto 2 46 16:01:25 21.446s
1 Lando Norris 2 47 16:01:19 21.816s
14 Fernando Alonso 2 49 16:05:57 28.713s
3 Max Verstappen 2 49 16:03:24 21.252s
12 Andrea Kimi Antonelli 2 51 16:05:50 21.502s
10 Pierre Gasly 3 51 16:07:16 21.580s
16 Charles Leclerc 3 59 16:16:08 22.738s
paradas
SG 10 20 30 40 50 60 L71
63
2
M18
H24
H29
3
2
M17
H31
H23
12
2
M23
H27
H21
81
2
M18
H23
H30
44
3
M11
H13
S17
H30
6
2
M17
M22
H32
1
2
M20
H26
H25
16
3
M12
H24
H22
S13·+3
30
2
M18
H26
M26
41
2
M17
H28
M25
5
2
S16
M27
H27
27
2
M20
M24
H26
10
3
M12
H25
M13
S20
87
2
M23
H21
M26
43
2
M19
H26
M25
31
2
M17
M15
H37
23
2
M17
M19
H33
14
2
M23
S25
S20
18
1
M23
S22
55
1
S13
M10
11
0
M4
77
0
M2
S Soft M Medium H Hard I Intermediate W Wet SC·VSC parada en boxes sanción cumplida en boxes
Carrera · ancho de barra = vueltas con ese juego, ·+N = montado usado con N vueltas previas · fuente OpenF1 (2023+)
Compuestos designados para este Gran Premio
C3 Duro C4 Medio C5 Blando
Pirelli designa tres de sus compuestos secos para cada prueba; cuanto mayor es el número C, más blando es el neumático. Documento FIA ↗
Más puestos ganados en pista
43
+15
P16→P15
44
+13
P3→P5
16
+11
P2→P8
1
+10
P6→P7
27
+10
P14→P12
10
+10
P11→P13
3
+9
P5→P2
6
+9
P8→P6
Más puestos perdidos
Lewis Hamilton −16 Charles Leclerc −16 Esteban Ocon −11
Carrera · Suma de posiciones ganadas en pista vuelta a vuelta — se excluyen la vuelta de salida y las vueltas de boxes propias. Datos de vueltas de carrera desde 1996.
PilotoTipoVueltaCumplidaImpuestaMotivo
18 Lance Stroll No further action Car 18 had several blue flags displayed prior to the car behind passing (No further action.) Doc 51 ↗
Car 18 had several blue flags displayed prior to the car behind passing (No further action.) Doc 51 ↗
14 Fernando Alonso No further action Car 14 had several blue flags displayed prior to the car behind passing (No further action.) Doc 50 ↗
Car 14 had several blue flags displayed prior to the car behind passing (No further action.) Doc 50 ↗
81 Oscar Piastri No further action Car 81 allegedly exceeded the time limit between the Safety Car lines. (No further action.) Doc 49 ↗
Car 81 allegedly exceeded the time limit between the Safety Car lines. (No further action.) Doc 49 ↗
23 Alexander Albon No further action Car 23 allegedly failed to slow for a single yellow flag (No further action.) Doc 45 ↗
Car 23 allegedly failed to slow for a single yellow flag (No further action.) Doc 45 ↗
11 Sergio Pérez No further action Car 11 moved prior to the start signal. (No penalty is applied.) Doc 55 ↗
Car 11 moved prior to the start signal. (No penalty is applied.) Doc 55 ↗
30 Liam Lawson No further action The Piloto did not follow the Carrera Director’s instruction considering practice salidas (item 13.6 of the Competition Notes) by crossing the white line at pit exit and subsequently cutting back in to make a practice start. (No penalty is applied.) Doc 47 ↗
The Piloto did not follow the Carrera Director’s instruction considering practice salidas (item 13.6 of the Competition Notes) by crossing the white line at pit exit and subsequently cutting back in to make a practice start. (No penalty is applied.) Doc 47 ↗
14 Fernando Alonso Time penalty 41 49 +5s Pit lane speeding – 80.1 km/h (5 second time penalty.) Doc 42 ↗
Vuelta 41 · Cumplida 49 · +5s Pit lane speeding – 80.1 km/h (5 second time penalty.) Doc 42 ↗
1 Lando Norris Black-and-white flag warning 71 TRACK LIMITS
Vuelta 71 TRACK LIMITS
Vuelta = vuelta en que se impuso la sanción · Cumplida = vuelta en que se cumplió en boxes (en blanco: se sumó al tiempo de carrera)
Time, drive-through and stop-go penalties come from race control messages (OpenF1, 2023+). Parrilla penalties never appear there — the stewards publish them as documents after the session — so they are worked back from the starting grid against the clasificación classification, which gives places actually lost rather than the figure written in the decision.
PilotoTipoVueltaCumplidaImpuestaMotivo
6 Isack Hadjar Black-and-white flag warning Car 6 exceeded the time limit between the Safety Car lines. (Piloto: Warning.) Doc 32 ↗
Car 6 exceeded the time limit between the Safety Car lines. (Piloto: Warning.) Doc 32 ↗
44 Lewis Hamilton Vueltas eliminadas TRACK LIMITS (PIT)
TRACK LIMITS (PIT)
43 Franco Colapinto Vueltas eliminadas TRACK LIMITS (PIT)
TRACK LIMITS (PIT)
6 Isack Hadjar Vueltas eliminadas DOUBLE YELLOW
DOUBLE YELLOW
44 Lewis Hamilton Vueltas eliminadas DOUBLE YELLOW
DOUBLE YELLOW
30 Liam Lawson Vueltas eliminadas DOUBLE YELLOW
DOUBLE YELLOW
16 Charles Leclerc Vueltas eliminadas DOUBLE YELLOW
DOUBLE YELLOW
1 Lando Norris Vueltas eliminadas DOUBLE YELLOW
DOUBLE YELLOW
81 Oscar Piastri Vueltas eliminadas DOUBLE YELLOW
DOUBLE YELLOW
41 Arvid Lindblad Vueltas eliminadas DOUBLE YELLOW
DOUBLE YELLOW
12 Andrea Kimi Antonelli Vueltas eliminadas DOUBLE YELLOW
DOUBLE YELLOW
63 George Russell Vueltas eliminadas DOUBLE YELLOW
DOUBLE YELLOW
Vuelta = vuelta en que se impuso la sanción · Cumplida = vuelta en que se cumplió en boxes (en blanco: se sumó al tiempo de carrera)
Time, drive-through and stop-go penalties come from race control messages (OpenF1, 2023+). Parrilla penalties never appear there — the stewards publish them as documents after the session — so they are worked back from the starting grid against the clasificación classification, which gives places actually lost rather than the figure written in the decision.
PilotoTipoVueltaCumplidaImpuestaMotivo
55 Carlos Sainz Black-and-white flag warning DRIVING UNNECESSARILY SLOWLY
DRIVING UNNECESSARILY SLOWLY
16 Charles Leclerc Vueltas eliminadas TRACK LIMITS (PIT)
TRACK LIMITS (PIT)
6 Isack Hadjar Vueltas eliminadas TRACK LIMITS (PIT)
TRACK LIMITS (PIT)
Vuelta = vuelta en que se impuso la sanción · Cumplida = vuelta en que se cumplió en boxes (en blanco: se sumó al tiempo de carrera)
Time, drive-through and stop-go penalties come from race control messages (OpenF1, 2023+). Parrilla penalties never appear there — the stewards publish them as documents after the session — so they are worked back from the starting grid against the clasificación classification, which gives places actually lost rather than the figure written in the decision.
PilotoTipoVueltaCumplidaImpuestaMotivo
77 Valtteri Bottas Vueltas eliminadas TRACK LIMITS (PIT)
TRACK LIMITS (PIT)
43 Franco Colapinto Vueltas eliminadas TRACK LIMITS (PIT)
TRACK LIMITS (PIT)
1 Lando Norris Vueltas eliminadas TRACK LIMITS (PIT)
TRACK LIMITS (PIT)
18 Lance Stroll Vueltas eliminadas TRACK LIMITS (PIT)
TRACK LIMITS (PIT)
44 Lewis Hamilton Vueltas eliminadas TRACK LIMITS (PIT)
TRACK LIMITS (PIT)
Vuelta = vuelta en que se impuso la sanción · Cumplida = vuelta en que se cumplió en boxes (en blanco: se sumó al tiempo de carrera)
Time, drive-through and stop-go penalties come from race control messages (OpenF1, 2023+). Parrilla penalties never appear there — the stewards publish them as documents after the session — so they are worked back from the starting grid against the clasificación classification, which gives places actually lost rather than the figure written in the decision.
PilotoTipoVueltaCumplidaImpuestaMotivo
14 Fernando Alonso Vueltas eliminadas TRACK LIMITS (PIT)
TRACK LIMITS (PIT)
Vueltas eliminadas TRACK LIMITS (PIT)
TRACK LIMITS (PIT)
6 Isack Hadjar Vueltas eliminadas TRACK LIMITS (PIT)
TRACK LIMITS (PIT)
Vueltas eliminadas TRACK LIMITS (PIT)
TRACK LIMITS (PIT)
Vueltas eliminadas DOUBLE YELLOW
DOUBLE YELLOW
Vuelta = vuelta en que se impuso la sanción · Cumplida = vuelta en que se cumplió en boxes (en blanco: se sumó al tiempo de carrera)
Time, drive-through and stop-go penalties come from race control messages (OpenF1, 2023+). Parrilla penalties never appear there — the stewards publish them as documents after the session — so they are worked back from the starting grid against the clasificación classification, which gives places actually lost rather than the figure written in the decision.
DocTítuloAsuntoPublished(CET)
1 Post-Carrera Checks on Car 44, Barcelona-Catalunya GP 2026 ↗ 44 Lewis Hamilton 2026-06-24 14:17
44 Lewis Hamilton 2026-06-24 14:17 CET
2 Competition Visa ↗ 2026-06-24 17:16
2026-06-24 17:16 CET
3 Competition Notes - Pirelli Preview ↗ 2026-06-24 17:26
2026-06-24 17:26 CET
4 Heat Hazard Declaration ↗ 2026-06-25 09:14
2026-06-25 09:14 CET
5 Power Unit Information ↗ 2026-06-25 11:56
2026-06-25 11:56 CET
6 Carrera Director's Competition Notes ↗ 2026-06-25 17:21
2026-06-25 17:21 CET
7 Competition Notes - Circuito Map, Pit Lane Drawing, Emergency Exits Map and Red Zone ↗ 2026-06-25 17:25
2026-06-25 17:25 CET
8 Car Display Procedure ↗ 2026-06-25 18:20
2026-06-25 18:20 CET
9 PU elements usados per driver up to now ↗ 2026-06-26 09:39
2026-06-26 09:39 CET
10 Self Scrutineering ↗ 2026-06-26 09:51
2026-06-26 09:51 CET
11 Entry List ↗ 2026-06-26 10:05
2026-06-26 10:05 CET
12 Steward Substitution ↗ 2026-06-26 10:23
2026-06-26 10:23 CET
13 Curfew ↗ 2026-06-26 10:27
2026-06-26 10:27 CET
14 Car Presentation Submissions ↗ 2026-06-26 11:00
2026-06-26 11:00 CET
15 New PU Elements for this Competition ↗ 2026-06-26 14:25
2026-06-26 14:25 CET
16 Free Practice 1 Classification ↗ 2026-06-26 14:45
2026-06-26 14:45 CET
17 Infringement - Free Practice 1 Deleted Vuelta Times ↗ 2026-06-26 14:51
2026-06-26 14:51 CET
18 Infringement - Free Practice 1 Deleted Vuelta Times - Double Yellow Banderas ↗ 2026-06-26 14:51
2026-06-26 14:51 CET
19 Free Practice 2 Classification ↗ 2026-06-26 18:16
2026-06-26 18:16 CET
20 Infringement - Free Practice 2 Deleted Vuelta Times ↗ 2026-06-26 18:23
2026-06-26 18:23 CET
21 Infringement - Free Practice 2 Deleted Vuelta Times - Double Yellow Banderas ↗ 2026-06-26 18:26
2026-06-26 18:26 CET
22 Carrera Director Notes - SC2 - SC1 Times ↗ 2026-06-26 18:28
2026-06-26 18:28 CET
23 Timetable V4 ↗ 2026-06-26 19:20
2026-06-26 19:20 CET
24 P1 and P2 Scrutineering ↗ 2026-06-26 19:36
2026-06-26 19:36 CET
25 Post-Clasificación Procedure ↗ 2026-06-27 09:31
2026-06-27 09:31 CET
26 Curfew ↗ 2026-06-27 10:23
2026-06-27 10:23 CET
27 Free Practice 3 Classification ↗ 2026-06-27 13:46
2026-06-27 13:46 CET
28 Infringement - Free Practice 3 Deleted Vuelta Times ↗ 2026-06-27 15:21
2026-06-27 15:21 CET
29 Summons - Car 6 - Alleged Failure to follow Carrera Director's instructions (SC2-SC1 Time) ↗ 6 Isack Hadjar 2026-06-27 17:10
6 Isack Hadjar 2026-06-27 17:10 CET
30 Provisional Clasificación Classification ↗ 2026-06-27 17:21
2026-06-27 17:21 CET
31 Infringement - Clasificación Deleted Vuelta Times ↗ 2026-06-27 18:09
2026-06-27 18:09 CET
32 Infringement - Car 6 - Failing to follow Carrera Directors Instructions (SC2-SC1) ↗ 6 Isack Hadjar 2026-06-27 18:13
6 Isack Hadjar 2026-06-27 18:13 CET
33 Infringement - Clasificación Deleted Vuelta Times - Double Yellow ↗ 2026-06-27 18:14
2026-06-27 18:14 CET
34 Decision - Clasificación SC2-SC1 Times ↗ 2026-06-27 18:20
2026-06-27 18:20 CET
35 P3 and Clasificación Scrutineering ↗ 2026-06-27 19:35
2026-06-27 19:35 CET
36 Final Clasificación Classification ↗ 2026-06-27 19:56
2026-06-27 19:56 CET
37 Provisional Starting Parrilla ↗ 2026-06-27 20:00
2026-06-27 20:00 CET
38 Pre-Carrera Procedure ↗ 2026-06-28 10:10
2026-06-28 10:10 CET
39 Post-Carrera Procedure ↗ 2026-06-28 10:13
2026-06-28 10:13 CET
40 Parts and Parameters been replaced and or changed during Parc Fermé ↗ 2026-06-28 13:51
2026-06-28 13:51 CET
41 Final Starting Parrilla ↗ 2026-06-28 14:00
2026-06-28 14:00 CET
42 Infringement - Car 14 - Pit Lane Speeding ↗ 14 Fernando Alonso 2026-06-28 16:31
14 Fernando Alonso 2026-06-28 16:31 CET
43 Summons - Car 81 - Alleged Failure to follow Carrera Director's Instructions (SC2 - SC1) ↗ 81 Oscar Piastri 2026-06-28 16:45
81 Oscar Piastri 2026-06-28 16:45 CET
44 Provisional Carrera Classification ↗ 2026-06-28 16:46
2026-06-28 16:46 CET
45 Decision - Car 23 - Alleged yellow flag infringement ↗ 23 Alexander Albon 2026-06-28 17:00
23 Alexander Albon 2026-06-28 17:00 CET
46 Infringement - Carrera Deleted Vuelta Times ↗ 2026-06-28 17:06
2026-06-28 17:06 CET
47 Decision - Car 30 - Failure to follow Carrera Director's Instructions - Practice Salidas ↗ 30 Liam Lawson 2026-06-28 17:38
30 Liam Lawson 2026-06-28 17:38 CET
49 Decision - Car 81 - Alleged failing to follow Carrera Directors Instructions (SC2-SC1) ↗ 81 Oscar Piastri 2026-06-28 17:41
81 Oscar Piastri 2026-06-28 17:41 CET
50 Decision - Car 14 - Alleged ignoring blue flags ↗ 14 Fernando Alonso 2026-06-28 17:42
14 Fernando Alonso 2026-06-28 17:42 CET
51 Decision - Car 18 - Alleged ignoring blue flags ↗ 18 Lance Stroll 2026-06-28 17:46
18 Lance Stroll 2026-06-28 17:46 CET
52 Carrera Scrutineering ↗ 2026-06-28 18:18
2026-06-28 18:18 CET
53 Final Carrera Classification ↗ 2026-06-28 18:50
2026-06-28 18:50 CET
54 Campeonato Puntos ↗ 2026-06-28 18:56
2026-06-28 18:56 CET
55 Decision - Car 11 - Alleged false start - Moving before signal ↗ 11 Sergio Pérez 2026-06-28 19:24
11 Sergio Pérez 2026-06-28 19:24 CET
FIA official decisions and documents (fia.com) · PDF original PDF links
Record Basis · Calculation basis
Carrera order is the final classification(post-race penalties applied) · clasificación session data 2003+ · lap times 1996+ · pit stops 2012+ (pit-lane transit, not stationary time) · Abandono = Finished(Finished·+N Vueltas) non-Finished statuses
Fuentes de datos: Jolpica-F1 (Ergast compatible API) · weather·Dirección de carrera OpenF1 (2023+) · Last fetched: 2026-09-05 14:15